West Bend, WI

2:12 PM CST on February 13, 2016 (GMT -0600)
West Bend Municipal

Weather History for KETB - November, 2012

Change the Weather History Date:

Thursday, November 22, 2012

  Actual Average Record
Temperature  
Mean Temperature 53 °F -  
Max Temperature 64 °F 41 °F 64 °F (2012)
Min Temperature 41 °F 24 °F 1 °F (1929)
Degree Days  
Heating Degree Days 12    
Growing Degree Days 3 (Base 50)    
Moisture  
Dew Point 40 °F    
Average Humidity 59    
Maximum Humidity 76    
Minimum Humidity 37    
Precipitation  
Precipitation 0.00 in - - ()
Sea Level Pressure  
Sea Level Pressure 29.80 in    
Wind  
Wind Speed 13 mph (SSW)    
Max Wind Speed 26 mph    
Max Gust Speed 36 mph    
Visibility 10 miles    
Events      
Averages and records for this station are not official NWS values.
T = Trace of Precipitation, MM = Missing Value Source: NWS Daily Summary

Daily Weather History Graph

Daily Weather History Graph

Search for Another Location

Airport or City:

Trip Planner

Search our weather history database for the weather conditions in past years. The results will help you decide how hot, cold, wet, or windy it might be!

Date:

Astronomy

Nov. 22, 2012 Rise Set
Actual Time 6:55 AM CST 4:21 PM CST
Civil Twilight 6:24 AM CST 4:53 PM CST
Nautical Twilight 5:48 AM CST 5:28 PM CST
Astronomical Twilight 5:14 AM CST 6:02 PM CST
Moon 1:15 PM CST (11/22) 1:06 AM CST (11/22)
Length of Visible Light 10h 29m
Length of Day
9h 26m
Waxing Gibbous, 71% of the Moon is Illuminated
Nov 22
Waxing Gibbous
Nov 28
Full
Dec 6
Last Quarter
Dec 13
New
Dec 19
First Quarter

Hourly Weather History & Observations

Time (CST) Temp. Windchill Dew Point Humidity Pressure Visibility Wind Dir Wind Speed Gust Speed Precip Events Conditions
12:15 AM 50.0 °F - 35.6 °F 58% 29.99 in 10.0 mi SW 13.8 mph 20.7 mph N/A   Clear
12:35 AM 50.0 °F - 35.6 °F 58% 29.99 in 10.0 mi SW 8.1 mph - N/A   Clear
12:55 AM 50.0 °F - 35.6 °F 58% 29.99 in 10.0 mi SSW 10.4 mph - N/A   Clear
1:15 AM 50.0 °F - 35.6 °F 58% 29.99 in 10.0 mi SSW 11.5 mph - N/A   Clear
1:35 AM 50.0 °F - 35.6 °F 58% 29.98 in 10.0 mi SSW 13.8 mph 18.4 mph N/A   Clear
1:55 AM 50.0 °F - 35.6 °F 58% 29.98 in 10.0 mi SSW 13.8 mph 18.4 mph N/A   Clear
2:15 AM 48.2 °F - 35.6 °F 62% 29.98 in 10.0 mi SSW 11.5 mph - N/A   Clear
2:35 AM 48.2 °F - 37.4 °F 66% 29.97 in 10.0 mi SSW 11.5 mph - N/A   Clear
2:55 AM 48.2 °F - 37.4 °F 66% 29.96 in 10.0 mi SSW 10.4 mph - N/A   Clear
3:15 AM 48.2 °F - 37.4 °F 66% 29.95 in 10.0 mi SSW 11.5 mph 17.3 mph N/A   Clear
3:35 AM 50.0 °F - 37.4 °F 62% 29.95 in 10.0 mi SSW 12.7 mph 17.3 mph N/A   Clear
3:55 AM 50.0 °F - 37.4 °F 62% 29.94 in 10.0 mi SSW 11.5 mph 17.3 mph N/A   Clear
4:15 AM 50.0 °F - 37.4 °F 62% 29.94 in 10.0 mi SSW 11.5 mph 16.1 mph N/A   Clear
4:35 AM 50.0 °F - 37.4 °F 62% 29.93 in 10.0 mi SSW 11.5 mph 17.3 mph N/A   Clear
4:55 AM 50.0 °F - 37.4 °F 62% 29.92 in 10.0 mi SSW 10.4 mph - N/A   Clear
5:15 AM 50.0 °F - 37.4 °F 62% 29.91 in 10.0 mi SSW 10.4 mph - N/A   Clear
5:35 AM 46.4 °F 41.5 °F 37.4 °F 71% 29.91 in 10.0 mi South 10.4 mph - N/A   Clear
5:55 AM 46.4 °F 41.9 °F 37.4 °F 71% 29.90 in 10.0 mi South 9.2 mph - N/A   Clear
6:15 AM 46.4 °F 41.5 °F 37.4 °F 71% 29.89 in 10.0 mi South 10.4 mph - N/A   Clear
6:35 AM 46.4 °F 41.5 °F 39.2 °F 76% 29.89 in 10.0 mi South 10.4 mph - N/A   Clear
6:55 AM 46.4 °F 42.4 °F 39.2 °F 76% 29.88 in 7.0 mi South 8.1 mph - N/A   Clear
7:15 AM 46.4 °F 41.5 °F 37.4 °F 71% 29.88 in 10.0 mi South 10.4 mph - N/A   Clear
7:55 AM 48.2 °F - 37.4 °F 66% 29.87 in 10.0 mi South 9.2 mph - N/A   Clear
8:15 AM 50.0 °F - 37.4 °F 62% 29.87 in 10.0 mi South 10.4 mph 16.1 mph N/A   Clear
8:35 AM 51.8 °F - 37.4 °F 58% 29.86 in 10.0 mi South 10.4 mph - N/A   Clear
8:55 AM 51.8 °F - 37.4 °F 58% 29.86 in 10.0 mi South 12.7 mph 21.9 mph N/A   Clear
9:15 AM 53.6 °F - 37.4 °F 54% 29.86 in 10.0 mi South 12.7 mph - N/A   Clear
9:35 AM 55.4 °F - 37.4 °F 51% 29.86 in 10.0 mi SSW 15.0 mph 18.4 mph N/A   Clear
9:55 AM 55.4 °F - 39.2 °F 54% 29.85 in 10.0 mi South 11.5 mph 18.4 mph N/A   Clear
10:15 AM 59.0 °F - 37.4 °F 45% 29.84 in 10.0 mi South 13.8 mph 20.7 mph N/A   Clear
10:35 AM 59.0 °F - 37.4 °F 45% 29.83 in 10.0 mi South 16.1 mph 23.0 mph N/A   Clear
10:55 AM 60.8 °F - 37.4 °F 42% 29.81 in 10.0 mi South 11.5 mph 20.7 mph N/A   Clear
11:15 AM 62.6 °F - 37.4 °F 39% 29.79 in 10.0 mi South 16.1 mph 21.9 mph N/A   Clear
11:35 AM 62.6 °F - 35.6 °F 37% 29.78 in 10.0 mi South 16.1 mph 24.2 mph N/A   Clear
11:55 AM 62.6 °F - 37.4 °F 39% 29.76 in 10.0 mi South 17.3 mph 26.5 mph N/A   Clear
12:15 PM 62.6 °F - 37.4 °F 39% 29.75 in 10.0 mi South 16.1 mph 26.5 mph N/A   Clear
12:35 PM 64.4 °F - 39.2 °F 40% 29.73 in 10.0 mi SSW 16.1 mph 26.5 mph N/A   Clear
12:55 PM 64.4 °F - 41.0 °F 42% 29.72 in 10.0 mi SSW 17.3 mph 28.8 mph N/A   Clear
1:15 PM 62.6 °F - 41.0 °F 45% 29.72 in 10.0 mi SSW 19.6 mph 28.8 mph N/A   Clear
1:35 PM 62.6 °F - 41.0 °F 45% 29.71 in 10.0 mi SSW 16.1 mph 28.8 mph N/A   Clear
1:55 PM 62.6 °F - 41.0 °F 45% 29.71 in 10.0 mi SW 19.6 mph 27.6 mph N/A   Clear
2:15 PM 60.8 °F - 41.0 °F 48% 29.71 in 10.0 mi SSW 16.1 mph 26.5 mph N/A   Clear
2:35 PM 60.8 °F - 42.8 °F 52% 29.69 in 10.0 mi SSW 16.1 mph 23.0 mph N/A   Clear
2:55 PM 60.8 °F - 42.8 °F 52% 29.68 in 10.0 mi SSW 16.1 mph 24.2 mph N/A   Clear
3:15 PM 60.8 °F - 42.8 °F 52% 29.68 in 10.0 mi SSW 15.0 mph 28.8 mph N/A   Clear
3:35 PM 60.8 °F - 42.8 °F 52% 29.69 in 10.0 mi SSW 16.1 mph 25.3 mph N/A   Clear
3:55 PM 60.8 °F - 42.8 °F 52% 29.69 in 10.0 mi SSW 15.0 mph 25.3 mph N/A   Clear
4:15 PM 60.8 °F - 42.8 °F 52% 29.69 in 10.0 mi SSW 11.5 mph 19.6 mph N/A   Clear
4:35 PM 59.0 °F - 44.6 °F 59% 29.69 in 10.0 mi SSW 12.7 mph 25.3 mph N/A   Clear
4:55 PM 59.0 °F - 44.6 °F 59% 29.69 in 10.0 mi SW 13.8 mph 25.3 mph N/A   Clear
5:15 PM 59.0 °F - 44.6 °F 59% 29.70 in 10.0 mi SW 18.4 mph 24.2 mph N/A   Clear
5:55 PM 59.0 °F - 44.6 °F 59% 29.69 in 10.0 mi SSW 13.8 mph 23.0 mph N/A   Clear
6:15 PM 57.2 °F - 44.6 °F 63% 29.69 in 10.0 mi SW 16.1 mph 25.3 mph N/A   Clear
6:35 PM 57.2 °F - 44.6 °F 63% 29.70 in 10.0 mi SSW 13.8 mph 25.3 mph N/A   Mostly Cloudy
6:55 PM 57.2 °F - 46.4 °F 67% 29.69 in 10.0 mi SSW 13.8 mph 19.6 mph N/A   Overcast
7:15 PM 55.4 °F - 46.4 °F 72% 29.68 in 10.0 mi SW 12.7 mph 17.3 mph N/A   Overcast
7:35 PM 55.4 °F - 46.4 °F 72% 29.68 in 10.0 mi SSW 13.8 mph 19.6 mph N/A   Overcast
7:55 PM 57.2 °F - 46.4 °F 67% 29.68 in 10.0 mi SW 13.8 mph 20.7 mph N/A   Overcast
8:15 PM 57.2 °F - 46.4 °F 67% 29.67 in 10.0 mi SW 17.3 mph 25.3 mph N/A   Overcast
8:35 PM 55.4 °F - 46.4 °F 72% 29.67 in 10.0 mi SW 12.7 mph 24.2 mph N/A   Mostly Cloudy
8:55 PM 55.4 °F - 46.4 °F 72% 29.67 in 10.0 mi SW 13.8 mph 20.7 mph N/A   Mostly Cloudy
9:15 PM 55.4 °F - 46.4 °F 72% 29.67 in 10.0 mi WSW 13.8 mph 23.0 mph N/A   Scattered Clouds
9:35 PM 53.6 °F - 44.6 °F 72% 29.68 in 10.0 mi WSW 12.7 mph 23.0 mph N/A   Mostly Cloudy
9:55 PM 51.8 °F - 39.2 °F 62% 29.70 in 10.0 mi West 20.7 mph 33.4 mph N/A   Overcast
10:15 PM 48.2 °F - 37.4 °F 66% 29.71 in 10.0 mi West 18.4 mph 31.1 mph N/A   Overcast
10:35 PM 44.6 °F 36.4 °F 35.6 °F 71% 29.72 in 10.0 mi West 20.7 mph 28.8 mph N/A   Overcast
10:55 PM 44.6 °F 36.1 °F 33.8 °F 66% 29.73 in 10.0 mi West 21.9 mph 34.5 mph N/A   Overcast
11:15 PM 42.8 °F 35.1 °F 33.8 °F 70% 29.73 in 10.0 mi West 16.1 mph 31.1 mph N/A   Overcast
11:35 PM 42.8 °F 32.9 °F 33.8 °F 70% 29.74 in 10.0 mi West 26.5 mph 32.2 mph N/A   Overcast
11:55 PM 41.0 °F 31.4 °F 30.2 °F 65% 29.75 in 10.0 mi West 21.9 mph 35.7 mph N/A   Mostly Cloudy